Home   Weather   Osorno   Past weeks

Flag for Chile Past Weather in Osorno, Chile — Yesterday and Last 2 Weeks

Now
59 °F

Sunny.


Feels Like: 57 °F
Forecast: N/A
Wind: 9 mph from South

Location: Puerto Montt Airport

Current Time: Sep 24, 2016 at 6:04:39 PM

Latest Report: Sep 24, 2016 at 5:00 PM


Visibility: 10 mi

Pressure: 30.07 "Hg

Humidity: 59%

Dew Point: 45 °F

Location of OsornoLocation

Past Weather in Osorno — Graph

°F

Osorno Temperature Yesterday

Maximum temperature yesterday: 64 °F (at 2:00 PM)
Minimum temperature yesterday: 32 °F (at 4:00 AM)
Average temperature yesterday: 46 °F

High & Low Weather Summary for the Past Weeks

 TemperatureHumidityPressure
High64 °F (Sep 23, 2:00 PM)100% (Sep 9, 11:00 PM)30.42 "Hg (Sep 9, 11:00 PM)
Low32 °F (Sep 14, 6:00 AM)37% (Sep 23, 3:00 PM)29.77 "Hg (Sep 12, 4:00 AM)
Average47 °F86%30.13 "Hg
* Reported Sep 9 5:00 PM — Sep 24 5:00 PM, Osorno, Weather by CustomWeather, © 2016

Note: Actual official high and low records may vary slightly from our data, if they occured in-between our weather recording intervals... More about our weather records

Advertising

Osorno Weather History for the Previous 24 Hours

Scroll right to see more
 ConditionsComfort  
Time TempWeatherWind HumidityBarometerVisibility
5:00 PM
Sat, Sep 24
59 °FSunny.9 mph59%30.07 "Hg10 mi
4:00 PM59 °FSunny.9 mph63%30.09 "Hg10 mi
3:00 PM59 °FSunny.9 mph63%30.09 "Hg10 mi
2:00 PM59 °FSunny.9 mph63%30.12 "Hg10 mi
1:00 PM57 °FSunny.7 mph67%30.15 "Hg10 mi
12:00 PM54 °FPartly sunny.7 mph72%30.15 "HgN/A
11:00 AM50 °FPartly sunny.3 mph88%30.18 "HgN/A
10:00 AM50 °FPartly sunny.5 mph88%30.18 "HgN/A
9:00 AM41 °FLow clouds.3 mph93%30.21 "HgN/A
8:00 AM39 °FLow clouds.No wind100%30.21 "HgN/A
7:00 AM39 °FLow clouds.No wind100%30.21 "HgN/A
6:00 AM39 °FLow clouds.No wind93%30.21 "HgN/A
5:00 AM36 °FLow clouds.No wind93%30.21 "HgN/A
4:00 AM34 °FClear.No wind93%30.21 "Hg10 mi
3:00 AM37 °FClear.No wind93%30.24 "Hg10 mi
2:00 AM36 °FClear.No wind93%30.24 "Hg10 mi
1:00 AM37 °FClear.3 mph93%30.24 "Hg10 mi
12:00 AM37 °FClear.No wind93%30.24 "Hg10 mi
11:00 PM
Fri, Sep 23
39 °FClear.No wind93%30.24 "Hg10 mi
10:00 PM43 °FClear.3 mph81%30.21 "Hg10 mi
9:00 PM46 °FClear.3 mph82%30.21 "Hg10 mi
8:00 PM52 °FClear.6 mph72%30.21 "Hg10 mi
7:00 PM57 °FPassing clouds.9 mph48%30.21 "HgN/A
6:00 PM59 °FPassing clouds.12 mph59%30.18 "HgN/A
Weather by CustomWeather, © 2016

See weather overviewHow to use our weather pages